Theta_e
297 297 296 296 296 296 295 296 296 296 296 296 296 296 296 296 296 293 290 294 286 282 284 285 285 281 281 279 274 276 275 274 274 268 267 268 264 266 263 265 263 264 261 264 262 263 263 272 274 268 266 265 271 273
295 294 294 293 293 293 293 294 294 294 294 294 294 295 295 295 295 294 286 292 293 284 283 288 288 288 286 284 280 280 276 275 276 271 269 269 265 267 264 262 274 266 269 267 270 267 270 269 267 267 266 265 272 272
293 293 292 292 292 292 292 293 293 292 293 293 294 294 294 294 294 292 288 289 286 282 282 283 282 287 289 288 287 278 279 280 278 278 273 271 267 271 262 266 269 273 274 270 268 272 271 270 271 271 270 273 274 274
291 291 292 292 291 292 292 292 292 292 292 292 292 292 292 292 292 292 286 289 286 284 278 279 286 285 288 288 287 286 280 281 282 279 272 271 268 275 270 272 271 273 274 272 271 275 272 274 275 275 273 272 273 273
290 290 290 290 290 290 290 291 291 291 291 291 291 291 291 291 292 290 288 288 289 282 276 279 280 282 283 285 285 284 282 280 279 276 273 271 274 273 272 271 271 274 272 271 270 276 274 275 275 275 274 273 273 273
290 289 289 289 290 290 290 290 290 290 290 290 290 290 290 290 291 285 279 287 289 288 280 275 278 273 278 282 282 281 282 281 280 277 275 277 278 274 271 264 274 276 277 277 274 276 275 275 275 274 274 273 273 271
289 289 289 289 289 289 289 289 289 289 290 290 290 290 290 290 287 282 279 286 290 287 280 275 274 274 277 279 279 280 281 280 278 277 274 273 275 277 272 267 274 276 277 275 275 274 272 273 272 272 271 270 266 264
288 288 288 289 289 288 289 289 288 289 289 289 290 290 290 290 288 283 286 291 290 284 282 275 271 271 274 274 271 274 276 277 276 275 273 270 274 274 269 273 275 275 275 272 272 271 273 273 272 271 270 267 263 265
288 288 288 288 288 288 288 288 288 288 289 289 290 290 285 282 280 282 292 292 290 283 276 275 268 268 273 272 272 270 274 270 269 269 270 271 266 266 270 272 274 273 271 271 269 266 266 268 268 266 264 263 263 265
287 287 287 288 287 287 287 287 288 288 289 290 285 276 275 284 290 288 285 280 280 280 280 274 277 269 273 272 271 268 268 270 264 265 267 262 263 269 272 269 270 271 271 269 263 262 261 262 266 264 263 260 261 260
287 287 287 287 287 287 287 287 287 288 288 280 278 276 282 288 280 281 277 275 274 273 275 274 273 269 274 271 270 271 267 266 262 261 262 262 261 268 265 262 261 262 266 266 263 263 267 265 265 263 258 258 257 256
286 286 286 286 287 286 287 287 287 284 282 282 283 284 284 278 274 274 269 272 272 268 271 270 271 273 271 272 270 267 267 264 261 260 261 257 268 266 262 260 259 257 260 259 258 261 260 262 263 264 260 258 256 254
286 286 286 286 286 286 287 287 287 287 287 284 279 275 275 271 268 268 258 264 267 265 266 268 269 271 269 272 268 266 262 261 261 260 259 265 266 265 261 255 256 253 254 256 256 255 255 255 252 255 255 253 252 252
286 286 286 286 286 286 286 286 286 285 282 277 272 269 270 265 265 270 267 266 268 270 271 271 268 269 269 267 265 263 259 262 260 258 260 264 264 262 260 255 255 256 253 255 256 255 254 253 252 250 250 250 250 251
285 286 285 285 286 285 285 285 286 282 278 271 274 266 265 266 266 265 263 265 267 273 271 270 269 270 265 261 263 262 260 259 261 262 264 266 263 259 259 258 256 254 255 254 254 254 255 253 251 252 250 249 250 249
285 284 281 285 286 285 285 283 279 281 277 271 272 267 268 265 268 263 264 267 271 272 274 274 269 268 263 265 263 262 262 261 265 263 266 266 263 260 258 257 257 255 255 254 254 254 253 252 251 252 250 251 250 249
284 279 284 285 285 284 284 277 274 275 269 267 266 265 267 268 269 269 270 271 271 272 271 272 267 266 266 265 264 264 263 265 265 266 266 262 260 259 256 254 254 253 253 254 253 253 253 250 250 252 256 255 250 251
277 280 284 285 283 279 275 276 275 273 265 265 263 264 268 269 268 266 267 268 271 272 272 271 269 266 265 264 264 265 264 264 266 265 263 259 256 255 253 253 254 254 253 252 252 251 251 253 254 256 255 253 252 252
280 281 284 285 281 273 273 268 272 266 264 261 262 265 264 266 266 265 267 271 271 273 272 271 270 268 269 267 265 264 265 265 262 263 261 256 255 253 252 253 254 254 254 254 255 256 255 254 254 254 254 253 253 252
283 284 285 285 281 269 267 265 271 270 263 263 264 264 264 264 264 266 269 271 272 272 271 271 268 266 266 264 264 264 263 261 258 258 261 260 259 257 254 253 255 255 256 255 257 258 257 256 255 254 253 252 251 253
281 281 283 279 271 268 264 262 263 265 263 264 264 265 264 264 265 267 269 270 271 265 266 265 264 264 264 263 261 260 259 258 257 259 259 259 260 260 256 257 256 258 261 261 261 257 259 257 255 254 252 251 252 253
278 281 272 272 264 262 262 262 261 264 264 263 264 266 264 264 266 265 264 268 261 259 259 259 260 259 260 259 257 255 252 251 257 257 257 256 256 259 259 257 259 260 259 258 258 256 255 255 254 254 254 253 254 254
280 276 268 268 265 260 258 262 260 262 258 263 265 265 264 264 264 265 262 259 258 259 258 258 257 257 256 257 255 252 250 252 253 252 252 253 254 256 257 257 257 259 257 255 254 255 256 257 255 254 254 254 253 254
277 264 263 261 262 260 260 260 262 262 264 264 264 263 263 261 262 262 257 256 257 259 256 255 256 256 256 256 255 252 251 252 253 253 254 255 256 254 256 256 255 254 253 253 254 255 255 254 256 255 254 253 253 254
263 259 259 255 260 258 257 258 261 262 261 263 262 260 258 257 259 257 257 256 256 254 253 253 254 255 253 255 256 256 254 250 250 252 254 253 256 258 258 256 254 252 253 255 253 251 254 257 256 254 255 255 256 257
255 255 256 259 259 258 260 260 261 263 263 262 260 257 258 258 255 254 253 252 252 250 248 249 249 250 253 253 253 251 253 254 252 252 253 254 254 255 254 254 255 253 250 250 252 254 257 257 257 258 258 257 259 258
254 255 255 254 256 259 260 262 263 263 263 262 260 257 256 253 250 251 253 251 248 248 250 251 250 249 251 253 255 255 256 253 251 253 252 252 251 250 251 251 250 253 254 255 255 254 255 257 258 257 257 259 257 256
254 252 254 255 258 259 260 260 259 257 258 257 257 251 249 249 250 249 251 250 250 251 251 251 252 252 252 253 254 253 252 252 253 251 251 252 250 249 251 255 256 261 258 257 257 257 257 257 256 256 256 258 259 260
252 253 257 257 259 256 254 255 255 252 252 253 253 248 246 248 249 249 250 250 251 250 251 253 253 255 255 253 252 251 252 253 256 255 252 251 256 257 257 257 258 259 258 258 261 261 258 259 258 260 260 260 263 264
256 257 257 256 256 254 252 251 252 251 250 249 248 249 249 250 249 249 249 250 250 250 251 253 254 254 254 253 254 254 251 251 250 251 254 256 256 255 255 256 258 259 259 259 258 259 265 263 265 263 263 264 261 261
256 257 256 255 255 253 252 251 250 250 249 246 245 246 245 246 250 251 250 251 250 252 252 253 253 251 252 252 251 252 253 252 254 253 253 253 254 254 256 257 257 257 258 259 261 262 263 263 262 261 260 259 258 258
256 255 255 253 253 252 252 253 253 253 252 251 248 245 245 245 245 248 251 250 251 252 253 253 250 250 252 251 251 252 253 253 253 254 253 253 254 256 257 257 257 258 259 260 260 262 261 259 258 258 258 257 258 256
256 255 255 255 255 254 252 253 252 251 251 248 245 242 243 244 248 248 251 251 251 251 251 251 252 252 252 251 253 253 254 254 254 258 261 262 262 261 258 256 255 254 258 258 258 259 258 258 258 257 257 256 254 255
Wind_Speed
20 21 23 24 26 27 29 30 31 31 31 32 31 29 28 29 28 18 11 9 7 8 14 12 22 13 4 9 7 6 2 1 4 3 2 2 2 3 2 5 4 3 0 2 3 3 3 1 2 2 4 2 1 1
20 21 24 27 27 29 30 30 31 32 32 32 32 31 29 28 29 23 12 9 8 10 9 8 20 25 23 9 8 4 5 4 4 2 1 1 3 2 4 4 2 3 5 3 2 5 3 2 4 3 4 3 1 1
21 22 24 26 28 29 30 30 30 30 31 32 32 32 31 29 28 25 12 8 3 8 9 7 10 17 14 16 7 7 3 5 4 3 2 2 4 1 3 5 5 4 3 2 4 3 3 5 3 4 5 4 3 3
22 23 24 26 28 28 30 31 32 32 32 32 33 33 31 30 30 29 12 9 6 6 7 8 1 13 9 15 16 14 4 4 4 2 3 3 3 5 4 5 4 5 6 5 6 8 2 5 7 8 6 4 3 4
21 23 25 27 28 30 29 30 32 32 33 33 33 32 33 32 30 20 11 11 11 9 8 5 0 4 2 10 15 10 8 6 3 4 4 4 2 1 3 3 9 6 6 6 5 4 2 3 9 8 8 7 5 5
22 24 26 27 29 30 30 30 32 33 34 34 33 34 33 33 31 11 7 3 5 11 6 11 3 2 1 4 8 11 10 7 4 3 3 3 4 3 4 5 6 8 9 9 4 4 2 7 7 7 6 7 6 5
23 25 26 27 30 31 32 33 33 34 33 35 34 32 34 33 17 9 7 5 8 4 2 3 3 2 3 4 2 4 6 3 3 3 4 3 3 6 3 10 2 4 6 5 7 8 3 6 5 7 6 6 5 4
25 24 27 28 30 32 34 34 35 34 34 36 35 37 35 34 29 14 11 23 16 6 4 4 2 3 2 2 3 2 3 3 3 1 1 2 2 3 6 13 4 4 4 5 8 3 2 7 9 7 5 6 4 5
25 26 28 30 29 32 32 35 35 34 34 37 37 34 18 7 3 3 25 25 7 6 3 2 5 4 2 2 3 2 1 2 2 3 2 1 3 7 10 6 7 6 6 5 5 5 4 4 7 6 5 4 5 4
28 26 28 31 30 31 33 34 34 34 35 39 15 2 4 1 14 20 3 2 4 4 3 2 2 3 2 2 3 4 0 1 3 4 2 2 6 6 6 4 3 4 6 10 6 2 3 4 8 8 8 5 5 5
25 29 29 30 33 33 33 34 34 33 24 2 3 4 6 22 4 3 1 0 1 2 2 2 3 4 0 2 3 1 3 2 2 3 3 4 5 4 2 5 4 5 6 7 4 3 9 6 8 7 5 6 5 5
27 28 29 33 31 31 32 32 30 13 9 13 16 10 5 4 3 4 2 1 2 1 3 2 3 3 2 2 4 1 2 1 3 2 1 4 4 2 2 4 3 4 3 5 2 5 4 4 6 8 5 5 5 5
28 29 31 31 33 31 30 30 28 31 24 4 2 3 3 3 3 2 3 3 1 2 2 2 3 2 1 1 4 2 3 3 1 1 5 5 3 3 3 3 3 3 4 3 2 3 5 4 4 4 5 2 4 3
28 30 31 31 31 30 28 25 27 22 7 5 2 6 3 2 4 2 2 1 0 2 4 3 2 2 1 2 2 3 1 0 2 2 6 3 3 4 4 2 1 3 5 5 5 4 5 5 3 2 2 4 5 4
28 32 30 26 27 21 23 24 26 9 4 5 4 5 3 1 3 2 2 2 2 3 3 2 2 1 1 4 1 4 2 4 6 5 2 1 3 2 3 2 5 5 4 4 3 3 4 4 4 2 4 4 4 2
28 28 11 22 26 23 23 17 6 3 4 4 4 4 0 1 2 1 2 3 1 2 1 1 3 2 2 3 3 6 4 5 3 2 2 2 3 3 3 3 5 4 5 4 4 4 3 3 4 4 1 2 3 3
26 3 21 29 23 22 20 5 2 4 4 3 2 1 1 3 4 2 1 1 1 3 2 2 4 3 2 2 2 3 4 2 1 1 1 2 3 5 4 4 4 2 3 5 4 3 4 4 3 2 3 2 1 3
9 11 23 24 15 7 2 1 3 4 4 2 1 1 2 2 4 2 2 0 2 2 2 1 3 3 3 3 2 2 0 2 1 0 1 2 4 4 3 4 4 2 3 4 4 3 4 3 2 1 1 1 3 4
13 13 24 23 9 1 2 4 1 4 5 1 3 2 2 3 2 3 3 1 2 3 1 1 2 1 1 3 2 1 1 2 2 3 1 1 2 3 4 3 3 4 3 3 2 2 2 3 3 1 1 2 1 3
22 24 28 15 6 2 2 4 2 4 3 2 2 2 2 2 3 3 2 1 2 2 2 1 3 3 3 2 3 3 2 3 2 4 1 2 2 4 4 3 2 3 2 3 3 2 2 2 2 2 2 1 2 4
16 8 3 4 2 1 2 1 2 1 3 2 1 2 3 2 2 2 1 2 2 4 3 3 3 3 3 2 3 3 3 4 2 1 1 4 4 2 2 2 2 2 1 2 3 2 3 2 0 1 1 3 3 3
3 8 2 2 3 2 1 1 2 2 2 2 2 2 2 2 2 2 3 1 4 3 3 3 3 4 4 4 3 3 3 5 5 3 4 4 4 4 3 3 3 3 4 3 3 2 1 1 2 2 2 3 3 3
7 3 3 1 1 1 6 1 1 2 2 2 1 2 0 1 1 2 3 3 2 2 2 2 4 4 3 3 2 3 3 5 3 3 3 3 2 3 3 4 4 3 2 2 2 2 2 4 3 2 3 3 3 4
6 4 3 3 3 2 1 2 2 2 2 2 2 2 0 2 3 1 3 2 1 2 5 7 5 4 1 1 3 3 4 3 4 3 4 4 3 3 2 1 2 2 2 2 2 2 2 3 4 3 3 3 4 3
6 4 4 3 1 2 2 2 3 2 3 2 2 1 0 2 2 3 2 1 2 3 5 6 5 5 3 3 2 2 2 3 3 3 4 3 3 1 1 1 2 2 2 3 3 3 3 2 3 3 3 3 4 5
2 3 4 4 2 3 3 2 2 2 1 1 2 1 2 1 4 1 1 3 3 2 3 4 4 5 2 1 3 3 4 2 3 1 2 4 4 2 2 3 3 2 1 0 2 3 4 3 3 5 4 4 5 5
3 4 1 1 1 2 3 2 2 2 1 2 2 1 2 3 1 1 1 2 2 2 2 4 3 3 4 5 5 3 4 2 1 2 2 2 1 1 2 1 2 3 2 2 2 2 3 4 3 4 3 3 2 2
3 2 4 3 2 1 3 3 3 3 3 3 1 4 3 3 3 2 2 1 2 5 5 6 5 4 4 4 3 6 5 4 4 2 2 2 1 2 4 3 4 7 2 2 2 2 3 3 2 3 2 2 3 3
3 1 2 2 2 4 3 3 2 2 2 2 2 2 1 1 1 2 3 3 5 4 4 4 3 3 3 3 1 2 4 5 4 3 3 3 2 1 4 4 4 3 1 2 4 6 5 4 3 2 1 2 4 6
2 1 3 3 3 3 1 1 1 1 1 1 2 2 1 1 1 1 3 3 3 3 3 3 3 4 4 4 3 1 2 2 4 3 3 3 3 5 5 5 5 4 3 3 2 2 4 2 3 4 6 6 5 6
1 1 4 3 3 2 2 1 1 1 1 2 1 4 2 2 3 2 2 3 3 3 3 4 3 3 4 5 4 4 4 1 5 5 3 4 5 5 5 4 3 3 3 2 3 4 6 6 6 7 9 8 8 7
1 2 4 4 2 2 1 1 0 2 1 3 3 2 3 3 3 4 2 3 2 3 4 4 3 3 2 1 3 5 8 7 7 5 6 4 4 5 5 3 2 2 3 5 5 6 8 8 6 7 7 8 8 7
3 1 2 4 3 3 1 1 2 2 3 3 3 1 1 3 2 4 2 1 1 3 4 5 6 5 4 4 6 6 5 6 9 10 10 10 8 1 2 2 2 3 6 7 6 6 9 10 9 8 8 9 6 6
Wind_Direction
325 326 325 324 320 319 318 316 314 314 314 315 314 311 309 307 308 309 291 290 245 267 258 222 226 210 194 191 189 153 136 193 166 221 203 226 196 253 354 251 225 219 293 280 331 253 304 237 267 152 202 262 174 7
318 321 320 318 318 316 316 316 312 313 311 314 307 309 314 312 309 310 297 292 289 251 287 252 231 223 205 177 194 161 186 163 205 158 226 5 267 227 203 276 164 279 196 219 214 245 167 184 176 186 150 163 184 352
316 318 316 317 318 318 316 319 312 314 315 314 314 312 313 314 312 308 302 298 242 259 244 214 219 211 216 217 192 196 181 190 192 171 148 209 237 182 226 242 255 257 118 220 39 302 199 179 156 163 178 205 88 71
317 318 317 318 317 317 315 320 317 313 316 313 314 313 312 313 314 304 292 287 266 273 270 244 130 204 193 205 217 208 169 53 110 131 180 201 190 191 239 264 273 238 170 213 255 268 68 210 199 171 165 156 169 125
316 318 318 318 317 317 317 318 316 317 312 314 309 310 308 306 299 296 288 273 246 231 282 303 340 148 97 206 207 192 176 152 180 191 193 210 225 152 239 249 252 194 216 197 229 224 170 159 175 154 167 176 164 167
318 318 318 319 319 318 317 320 317 314 316 313 312 308 304 304 306 309 287 254 301 206 232 232 99 73 44 143 172 179 191 191 197 193 194 197 224 144 256 252 211 216 208 206 237 146 73 118 128 155 165 154 153 149
315 318 317 317 321 320 321 321 318 314 314 312 307 304 302 299 296 271 255 281 313 345 277 271 163 59 37 135 133 160 175 178 189 210 206 204 178 201 226 253 6 273 237 147 137 110 142 179 189 167 137 123 95 83
314 317 313 317 316 319 317 317 319 315 314 313 310 302 301 299 299 283 260 265 262 225 233 243 100 133 241 157 107 352 123 118 159 223 128 197 169 215 251 251 255 258 207 148 171 113 99 129 122 136 113 131 139 181
315 317 315 315 314 316 320 315 320 314 311 313 310 308 302 271 251 278 307 297 190 198 217 240 157 159 202 73 98 71 36 141 39 227 192 189 214 224 235 235 258 203 183 202 125 106 92 128 151 154 139 163 165 200
317 321 315 316 316 316 314 315 315 315 318 314 306 280 271 51 304 307 57 158 160 173 213 208 82 117 175 158 140 106 111 172 188 210 95 189 255 283 269 223 216 245 204 131 114 206 179 199 182 183 200 186 179 185
317 318 318 315 318 318 314 316 318 319 315 317 293 273 295 305 291 256 304 52 58 154 137 51 63 124 75 177 123 355 154 130 207 233 160 231 264 243 338 308 285 286 264 176 149 165 173 164 176 180 187 204 188 185
319 312 318 316 314 318 313 318 318 330 301 285 289 288 268 281 280 296 20 29 332 304 24 50 55 56 130 286 117 191 130 121 232 158 90 267 248 249 320 292 303 339 35 106 88 139 133 131 164 170 170 188 198 192
313 320 315 320 310 316 319 316 318 316 320 291 218 228 223 242 286 273 245 309 347 125 193 164 127 112 161 51 72 125 149 193 123 132 229 228 240 286 281 301 300 329 25 111 103 88 103 101 50 117 162 194 139 170
318 312 316 312 319 318 317 322 319 328 305 278 236 239 212 227 256 278 328 82 63 97 147 102 112 98 95 84 114 134 48 140 214 239 237 237 234 271 290 247 131 253 213 201 211 192 163 156 181 222 189 168 163 212
317 311 316 318 309 312 318 317 317 333 250 270 284 259 210 245 199 222 259 289 276 150 136 122 82 126 116 95 11 105 101 237 206 228 215 233 257 260 283 258 233 232 215 218 196 203 209 168 158 206 223 200 191 208
313 317 309 316 314 311 313 316 306 223 259 236 248 311 294 309 232 188 166 267 223 160 288 247 140 189 165 116 151 214 176 223 237 207 250 348 345 312 285 286 271 240 190 180 173 143 125 144 183 219 237 214 218 196
315 255 302 313 312 315 316 297 295 247 246 268 297 105 263 262 279 339 137 78 183 190 223 194 198 173 106 194 228 186 205 222 176 33 15 76 328 307 306 305 297 244 153 133 134 117 113 115 107 48 31 348 180 242
299 293 296 301 304 321 274 240 262 279 289 293 339 346 322 272 292 282 356 342 196 250 287 289 127 175 184 193 240 231 246 280 212 169 50 18 345 331 344 333 349 84 119 106 111 130 106 116 143 248 128 58 339 312
287 290 295 307 282 156 273 297 255 267 250 332 301 259 252 261 220 255 263 274 309 300 149 218 254 197 111 39 33 10 33 31 338 298 157 129 29 356 336 5 29 60 90 117 124 128 140 154 141 101 50 29 304 297
296 300 301 306 179 152 265 285 174 268 274 263 267 301 307 275 280 279 262 193 251 252 233 304 32 30 14 36 359 17 14 324 328 350 1 16 13 27 27 12 30 106 97 72 68 74 95 87 47 63 50 25 347 300
321 306 334 134 44 81 180 237 290 237 303 290 271 274 269 266 279 304 67 349 250 25 52 19 52 34 48 55 23 328 38 5 359 318 302 305 345 353 35 25 8 2 53 71 92 60 46 71 310 353 357 292 260 260
230 203 92 28 85 346 326 307 182 289 260 268 276 260 302 322 1 19 322 57 48 30 8 339 2 343 347 19 349 16 299 297 275 305 337 326 1 7 19 356 359 50 51 40 50 56 357 341 347 322 300 282 298 285
193 126 57 117 128 83 262 49 308 223 254 256 235 248 234 301 356 304 77 79 94 45 331 326 314 282 267 307 317 350 342 348 354 358 343 342 38 5 42 26 9 41 78 17 12 3 341 317 307 319 301 317 343 329
46 85 174 202 170 257 11 250 233 260 253 241 243 242 105 333 317 61 84 61 76 34 11 349 331 330 289 336 27 353 339 324 316 28 3 359 51 20 37 58 57 57 30 304 327 327 323 327 325 340 359 358 342 330
95 285 115 265 352 68 256 255 232 226 245 191 236 205 315 339 56 51 62 17 4 23 3 345 347 359 8 328 1 2 19 38 360 351 357 337 301 199 78 97 79 66 329 12 11 348 326 336 1 4 355 7 357 348
172 259 140 200 191 178 228 255 225 247 209 193 73 1 331 6 63 46 359 336 342 355 335 336 332 331 335 19 307 329 322 346 328 354 8 358 3 24 348 2 359 346 347 71 329 345 356 359 1 14 15 10 16 27
190 235 227 5 340 286 279 230 281 286 305 20 82 24 46 71 251 267 79 44 316 310 281 282 263 257 277 309 312 310 318 305 191 243 269 287 313 43 64 358 298 267 315 300 294 304 331 344 360 5 5 13 356 4
156 126 146 209 127 352 311 359 25 29 14 352 338 46 122 153 220 305 314 307 285 299 288 268 237 236 262 278 303 326 320 311 269 227 267 265 197 241 273 263 243 290 272 233 229 252 250 275 319 345 11 25 4 1
75 258 94 80 102 61 46 19 36 55 338 311 91 106 185 234 251 302 307 322 296 279 297 330 325 276 247 242 252 351 312 342 21 45 27 353 348 41 355 327 319 317 300 275 262 213 222 227 240 253 50 35 55 66
131 225 95 53 55 45 23 9 26 49 31 58 110 102 71 320 257 216 281 292 321 318 291 282 313 352 4 360 340 347 297 21 48 45 360 359 335 319 317 317 320 327 327 324 338 336 60 68 83 43 61 65 55 62
301 102 82 59 79 65 75 101 155 197 129 59 323 98 167 301 306 240 271 302 280 306 339 356 356 35 19 19 10 337 319 83 14 330 298 279 279 281 288 300 303 314 311 358 72 79 88 82 76 79 78 75 65 71
58 80 127 113 128 154 194 257 286 79 44 61 13 52 6 39 354 287 307 331 338 2 357 349 344 310 340 261 246 250 259 288 296 308 301 276 275 278 285 287 316 330 59 75 75 85 84 87 84 87 88 81 75 74
105 99 97 113 113 175 166 98 38 75 44 39 352 224 219 163 163 268 299 167 242 284 301 297 289 284 286 280 275 292 303 284 284 289 284 275 261 323 20 9 28 60 83 81 74 87 89 95 90 87 86 88 87 83